Location: Newark
(48.5667°N, 7.8167°E)
Time: 00:19:00
(UTC+00:00)

CZ-6 R/B - Pass Details

Date: 05 December 2021
Orbit: 384 x 499 km, 97.7° (Epoch: 22 January)

Event Time Altitude Azimuth Distance (km) Brightness Sun altitude
Exits shadow 16:36:21 - 11° (N) 2,154 ? -9.9°
Reaches altitude 10° 16:37:57 10° 10° (N) 1,457 ? -10.1°
Maximum altitude 16:41:02 73° 286° (WNW) 416 ? -10.6°
Drops below altitude 10° 16:44:01 10° 201° (SSW) 1,414 ? -11.1°
Sets 16:45:57 0° 199° (SSW) 2,259 ? -11.4°
